Tyler, TX

9:34 PM CDT on May 26, 2017 (GMT -0500)
Tyler Pounds

Weather History for KTYR - December, 2011

Change the Weather History Date:

Thursday, December 15, 2011

  Actual Average Record
Temperature  
Mean Temperature 59 °F 48 °F  
Max Temperature 69 °F 57 °F 79 °F (1975)
Min Temperature 48 °F 39 °F 14 °F (1958)
Degree Days  
Heating Degree Days 6 17  
Month to date heating degree days 233 242  
Since 1 July heating degree days 541 616  
Cooling Degree Days 0 0  
Month to date cooling degree days 1 0  
Year to date cooling degree days 3677 2411  
Growing Degree Days 10 (Base 50)    
Moisture  
Dew Point 55 °F    
Average Humidity 89    
Maximum Humidity 100    
Minimum Humidity 78    
Precipitation  
Precipitation 0.99 in 0.14 in 3.31 in (1992)
Month to date precipitation 3.38 1.98  
Year to date precipitation 22.62 43.53  
Snow  
Snow 0.00 in - - ()
Month to date snowfall 0.0  
Since 1 July snowfall 0.0  
Snow Depth 0.00 in    
Sea Level Pressure  
Sea Level Pressure 30.11 in    
Wind  
Wind Speed 8 mph (NNE)    
Max Wind Speed 17 mph    
Max Gust Speed 23 mph    
Visibility 6 miles    
Events Rain , Thunderstorm    
T = Trace of Precipitation, MM = Missing Value Source: NWS Daily Summary

Daily Weather History Graph

Daily Weather History Graph

Search for Another Location

Airport or City:

Trip Planner

Search our weather history database for the weather conditions in past years. The results will help you decide how hot, cold, wet, or windy it might be!

Date:

Astronomy

Dec. 15, 2011 Rise Set
Actual Time 7:15 AM CST 5:18 PM CST
Civil Twilight 6:48 AM CST 5:45 PM CST
Nautical Twilight 6:17 AM CST 6:15 PM CST
Astronomical Twilight 5:47 AM CST 6:45 PM CST
Moon 10:30 PM CST (12/15) 10:45 AM CST (12/15)
Length of Visible Light 10h 56m
Length of Day
10h 02m
Waning Gibbous, 74% of the Moon is Illuminated
Dec 15
Waning Gibbous
Dec 17
Last Quarter
Dec 24
New
Jan 1
First Quarter
Jan 9
Full

Hourly Weather History & Observations

Time (CST) Temp. Dew Point Humidity Pressure Visibility Wind Dir Wind Speed Gust Speed Precip Events Conditions
12:22 AM 69.8 °F 64.4 °F 83% 30.02 in 10.0 mi South 12.7 mph - N/A   Overcast
12:45 AM 68.0 °F 62.6 °F 83% 30.01 in 10.0 mi South 13.8 mph - N/A   Overcast
12:53 AM 68.0 °F 63.0 °F 84% 30.00 in 10.0 mi South 10.4 mph - N/A   Overcast
1:49 AM 60.8 °F 57.2 °F 88% 30.04 in 2.5 mi NW 10.4 mph - 0.06 in Rain Heavy Rain
1:53 AM 60.1 °F 57.9 °F 93% 30.03 in 2.5 mi NNW 12.7 mph - 0.07 in Rain Heavy Rain
1:55 AM 60.8 °F 57.2 °F 88% 30.05 in 3.0 mi NW 13.8 mph - 0.00 in Rain Rain
2:31 AM 59.0 °F 57.2 °F 94% 30.05 in 10.0 mi North 5.8 mph - 0.04 in Rain Light Rain
2:53 AM 59.0 °F 57.0 °F 93% 30.04 in 9.0 mi North 4.6 mph - 0.04 in Rain Light Rain
3:21 AM 57.2 °F 57.2 °F 100% 30.06 in 5.0 mi North 4.6 mph - 0.06 in Rain Rain
3:53 AM 57.0 °F 55.0 °F 93% 30.05 in 5.0 mi NNE 3.5 mph - 0.13 in Rain Light Rain
4:23 AM 57.2 °F 55.4 °F 94% 30.07 in 1.8 mi North 4.6 mph - 0.10 in Rain Heavy Rain
4:32 AM 55.4 °F 55.4 °F 100% 30.06 in 3.0 mi NE 4.6 mph - 0.14 in Rain Rain
4:53 AM 57.0 °F 55.9 °F 96% 30.04 in 7.0 mi East 3.5 mph - 0.15 in Rain Light Rain
5:53 AM 57.0 °F - N/A% 30.05 in 10.0 mi ESE 4.6 mph - 0.08 in Rain Light Rain
6:53 AM 57.0 °F - N/A% 30.07 in 10.0 mi Calm Calm - 0.00 in   Overcast
7:53 AM 57.2 °F 57.2 °F 100% 30.10 in 5.0 mi East 3.5 mph - N/A Rain Light Rain
8:04 AM 57.2 °F 57.2 °F 100% 30.10 in 3.0 mi East 6.9 mph - 0.00 in Rain Light Rain
8:12 AM 57.2 °F 57.2 °F 100% 30.10 in 2.5 mi East 6.9 mph - 0.01 in Rain Light Rain
8:25 AM 57.2 °F 55.4 °F 94% 30.10 in 4.0 mi East 5.8 mph - 0.01 in Rain Light Rain
8:46 AM 57.2 °F 57.2 °F 100% 30.11 in 4.0 mi Calm Calm - 0.01 in Rain Light Rain
8:53 AM 57.2 °F 57.2 °F 100% 30.11 in 3.0 mi ENE 3.5 mph - N/A Rain Light Rain
9:39 AM 57.2 °F 55.4 °F 94% 30.13 in 5.0 mi NE 5.8 mph - 0.01 in Rain Light Rain
9:46 AM 57.2 °F 55.4 °F 94% 30.13 in 5.0 mi ENE 5.8 mph - 0.01 in Rain Light Rain
9:53 AM 57.0 °F 55.9 °F 96% 30.13 in 7.0 mi North 4.6 mph - 0.01 in Rain Light Rain
10:18 AM 57.2 °F 57.2 °F 100% 30.14 in 2.0 mi NNE 6.9 mph - 0.02 in Rain Light Rain
10:27 AM 57.2 °F 57.2 °F 100% 30.14 in 4.0 mi NNE 5.8 mph - 0.02 in Rain Light Rain
10:53 AM 57.0 °F 55.0 °F 93% 30.13 in 10.0 mi NE 6.9 mph - 0.02 in   Overcast
11:36 AM 55.4 °F 55.4 °F 100% 30.13 in 2.5 mi NNE 8.1 mph - 0.02 in Rain Light Rain
11:46 AM 55.4 °F 55.4 °F 100% 30.13 in 1.8 mi NNE 5.8 mph - 0.03 in Rain Light Rain
11:53 AM 55.9 °F 55.9 °F 100% 30.12 in 1.8 mi Variable 5.8 mph - 0.03 in Rain Light Rain
12:01 PM 55.4 °F 55.4 °F 100% 30.13 in 2.0 mi North 6.9 mph - 0.01 in Rain Light Rain
12:30 PM 55.4 °F 55.4 °F 100% 30.12 in 2.5 mi NNE 4.6 mph - 0.02 in Rain Light Rain
12:53 PM 55.9 °F 55.9 °F 100% 30.11 in 2.5 mi NNW 6.9 mph - 0.03 in Rain Light Rain
12:57 PM 55.4 °F 55.4 °F 100% 30.12 in 1.8 mi NNW 6.9 mph - N/A Rain Rain
1:11 PM 55.4 °F 55.4 °F 100% 30.12 in 2.5 mi North 9.2 mph - 0.02 in Rain Light Rain
1:15 PM 55.4 °F 55.4 °F 100% 30.12 in 3.0 mi North 10.4 mph - 0.03 in Rain Light Rain
1:24 PM 55.4 °F 55.4 °F 100% 30.12 in 4.0 mi North 6.9 mph - 0.03 in Rain Light Rain
1:53 PM 55.0 °F 55.0 °F 100% 30.11 in 10.0 mi North 8.1 mph - 0.03 in   Overcast
2:53 PM 55.9 °F 55.0 °F 97% 30.10 in 10.0 mi North 8.1 mph - N/A   Overcast
3:07 PM 55.4 °F 55.4 °F 100% 30.10 in 10.0 mi North 10.4 mph - N/A   Overcast
3:24 PM 55.4 °F 55.4 °F 100% 30.10 in 10.0 mi North 11.5 mph - N/A   Overcast
3:31 PM 55.4 °F 55.4 °F 100% 30.10 in 10.0 mi North 11.5 mph - N/A   Overcast
3:53 PM 55.0 °F 54.0 °F 96% 30.09 in 10.0 mi North 11.5 mph - N/A   Overcast
4:27 PM 55.4 °F 53.6 °F 94% 30.11 in 10.0 mi NNE 10.4 mph - N/A   Overcast
4:53 PM 55.0 °F 53.1 °F 93% 30.11 in 10.0 mi NNE 8.1 mph - N/A   Overcast
5:45 PM 53.6 °F 53.6 °F 100% 30.13 in 10.0 mi North 9.2 mph - N/A   Overcast
5:53 PM 54.0 °F 52.0 °F 93% 30.12 in 10.0 mi North 10.4 mph - N/A   Overcast
6:53 PM 53.1 °F 50.0 °F 89% 30.14 in 10.0 mi North 10.4 mph - 0.00 in Rain Light Rain
7:04 PM 53.6 °F 50.0 °F 88% 30.16 in 10.0 mi North 10.4 mph - 0.00 in Rain Light Rain
7:21 PM 53.6 °F 48.2 °F 82% 30.16 in 10.0 mi NNE 11.5 mph - 0.00 in Rain Light Rain
7:33 PM 53.6 °F 48.2 °F 82% 30.14 in 10.0 mi NE 16.1 mph 21.9 mph 0.00 in   Overcast
7:53 PM 53.1 °F 48.9 °F 86% 30.15 in 10.0 mi NNE 9.2 mph 19.6 mph 0.00 in   Overcast
8:31 PM 51.8 °F 48.2 °F 88% 30.16 in 10.0 mi North 10.4 mph - N/A   Overcast
8:53 PM 51.1 °F 48.9 °F 92% 30.16 in 10.0 mi North 12.7 mph - 0.00 in   Overcast
9:53 PM 51.1 °F 48.9 °F 92% 30.14 in 6.0 mi NE 11.5 mph 20.7 mph 0.04 in Rain Light Rain
10:48 PM 50.0 °F - N/A% 30.15 in 8.0 mi NNE 9.2 mph 17.3 mph 0.12 in Rain , Thunderstorm Light Rain
10:53 PM 50.0 °F - N/A% 30.17 in 8.0 mi NNW 10.4 mph 17.3 mph 0.13 in Rain , Thunderstorm Light Rain
11:03 PM 50.0 °F - N/A% 30.19 in 4.0 mi NW 9.2 mph - 0.04 in Rain Heavy Rain
11:53 PM 48.9 °F 48.0 °F 97% 30.22 in 9.0 mi NNW 12.7 mph - 0.19 in Rain Light Rain